Regional Weather Roundup
Issued by NWS

Home | Current Version | Previous Version | Text Only | Print | Product List | Glossary Off
Versions: 1 2 3 4 5 6 7 8 9 10 11 12 13 14 15 16 17 18 19 20 21 22 23 24 25 26 27

000
ASUS45 KSLC 240510
RWRUT

UTAH REGIONAL WEATHER ROUNDUP
NATIONAL WEATHER SERVICE SALT LAKE CITY UT
1000 PM MST THU NOV 23 2017

UTZ001>011-023>025-240600-

NORTHERN UTAH

CITY           SKY/WX    TMP DP  RH WIND       PRES   REMARKS
BRIGHAM CITY   CLOUDY    49  43  79 S3        30.04F
HILL AFB       CLOUDY    51  42  72 N5        30.06F
LOGAN          CLOUDY    51  44  77 S12       30.03F
OGDEN          CLOUDY    51  43  74 E5        30.05F
SALT LAKE CITY CLOUDY    51  45  79 N7        30.05R
TOOELE VALLEY  CLOUDY    45  43  93 CALM      30.06S
WENDOVER       CLOUDY    44  37  76 CALM      30.07S
HEBER CITY     MOCLDY    43  34  70 E3        30.10F
WEST JORDAN    CLOUDY    56  39  53 S8        30.06F

$$

UTZ011>015-024>027-240600-

CENTRAL/NORTHEAST UTAH

CITY           SKY/WX    TMP DP  RH WIND       PRES   REMARKS
PROVO AIRPORT  CLOUDY    48  41  76 CALM      30.09F
MOAB/CANYONLAN PTCLDY    38  23  55 CALM      30.14F
DELTA          CLOUDY    46  32  57 S3        30.09F
PRICE          PTCLDY    40  31  70 N9        30.18F WCI  34
ROOSEVELT      CLOUDY    34  28  80 W5        30.15S WCI  30
VERNAL         CLOUDY    35  29  78 W6        30.13F WCI  30

$$

UTZ013>016-019>022-027-240600-

SOUTHERN UTAH

CITY           SKY/WX    TMP DP  RH WIND       PRES   REMARKS
BRYCE CANYON   PTCLDY    28  19  69 SW6       30.29S WCI  22
CEDAR CITY     PTCLDY    48  19  31 SE8       30.16F
MILFORD        MOCLDY    55  31  39 SW15      30.12S
ST GEORGE      MOCLDY    50  30  46 W3        30.10S
HANKSVILLE     MOCLDY    36  23  60 NE3       30.18R
BLANDING         N/A     40  28  62 N3        30.27S

$$

REGIONAL REPORTS     COLORADO/ARIZONA

CITY           SKY/WX    TMP DP  RH WIND       PRES   REMARKS
CRAIG, CO      CLOUDY    34  31  88 CALM      30.15F
GRAND JUNCTION CLOUDY    44  33  65 E5        30.16S
RIFLE, CO      CLOUDY    38  34  85 CALM      30.19S
MONTROSE, CO   CLOUDY    40  31  70 S9        30.22S WCI  34
CORTEZ, CO     CLOUDY    33  26  75 E3        30.23S
COLORADO CITY    N/A     37  28  70 SE5       30.20S WCI  34
PAGE, AZ       PTCLDY    48  33  56 CALM      30.15S
GRAND CANYON   PTCLDY    29  14  53 CALM      30.26F
KINGMAN, AZ    PTCLDY    53  28  38 CALM      30.09F
FLAGSTAFF, AZ  PTCLDY    32  24  72 CALM      30.29F

$$

REGIONAL REPORTS    NEVADA/IDAHO/WYOMING

CITY           SKY/WX    TMP DP  RH WIND       PRES   REMARKS
LAS VEGAS, NV  PTCLDY    63  39  41 S3        30.03S
ELY, NY        CLOUDY    47  26  44 S6        30.19S
ELKO, NV       MOCLDY    49  36  61 CALM      30.07F
POCATELLO, ID  MOCLDY    56  39  53 SW20G25   29.97F
BURLEY, ID     MOCLDY    57  40  52 SW13      29.95F
FORT BRIDGER,    N/A     48  33  55 SW16      30.14F
EVANSTON, WY   CLOUDY    47  32  56 SW7       30.13F
ROCK SPRINGS,  CLOUDY    48  34  58 W16       30.12F
KEMMERER, WY   CLOUDY    43  34  70 W15G21    30.12S

$$




USA.gov is the U.S. government's official web portal to all federal, state and local government web resources and services.